Tracking 25734 objects as of 28-May-2022
HD Live streaming from Space Station
objects crossing your sky now

FREGAT R/B

Track FREGAT R/B now!


NORAD ID: 43688
Int'l Code: 2018-086B
Perigee: 19,293.5 km
Apogee: 19,695.0 km
Inclination: 64.3 °
Period: 690.0 minutes
Semi major axis: 25865 km
RCS: Unknown
Launch date: November 3, 2018
Source: Commonwealth of Independent States (former USSR) (CIS)
Launch site: PLESETSK MISSILE AND SPACE COMPLEX (PKMTR)

Note: This is a ROCKET BODY
aabbcc
Your satellite tracking list
Your tracking list is empty




NASA's NSSDC Master Catalog

Two Line Element Set (TLE):
1 43688U 18086B   22146.37668611 -.00000037  00000-0  00000-0 0  9996
2 43688  64.3112 244.7941 0077610 131.0704 229.6216  2.08702376 26872
Source of the keplerian elements: AFSPC